Location: Lawrence
(38.9720°N, 95.2350°W)
Time: 11:05:54
(UTC-05:00)

Amateur Radio Satellites - All Passes

Search period start: 29 June 2017 10:35
Search period end: 30 June 2017 10:35
Location: Lawrence, 38.9720°N, 95.2350°W

Satellite Date Start Highest point End Downlink Frequencies (MHz)
Time Altitude Azimuth
AO-73 29 Jun 10:48:42 10:52:27 28° 290° (WNW) 10:56:06 145.935
FO-29 29 Jun 10:55:41 11:01:40 53° 262° (W) 11:08:30 435.910
TIGRISAT 29 Jun 11:05:29 11:09:55 46° 262° (W) 11:14:26 435.000
Oscar 11 29 Jun 11:11:00 11:14:15 21° 292° (WNW) 11:17:29 .
EO-88 29 Jun 11:16:43 11:20:22 86° 102° (ESE) 11:23:59 145.990 - 145.960
PRISM 29 Jun 11:17:09 11:20:34 26° 263° (W) 11:24:01 437.425
HO-68 29 Jun 11:17:18 11:19:14 11° 309° (NW) 11:21:11 435.675
AIST 2D 29 Jun 11:17:21 11:20:20 26° 72° (ENE) 11:23:20 435.315
DELFI C3 29 Jun 11:21:10 11:25:01 55° 286° (WNW) 11:28:53 145.870
LO-87 29 Jun 11:26:55 11:28:29 12° 92° (E) 11:30:01 145.935 - 145.965
ZACube-1 29 Jun 11:28:50 11:29:42 11° 298° (WNW) 11:30:34 437.345
PCSat 29 Jun 11:44:09 11:49:31 68° 115° (ESE) 11:54:55 145.827
POLYITAN 1 29 Jun 11:45:35 11:49:20 30° 70° (ENE) 11:53:05 437.675
UNISAT 6 29 Jun 11:51:05 11:53:43 15° 269° (W) 11:56:23 437.425
QB50P2 29 Jun 11:56:20 12:00:23 44° 73° (ENE) 12:04:28 145.880/145.840
YUBILEINY 29 Jun 11:57:24 12:00:56 13° 285° (WNW) 12:04:28 435.215
ISS 29 Jun 12:18:39 12:20:01 12° 14° (NNE) 12:21:23 437.550
EO-79 29 Jun 12:19:02 12:23:16 75° 77° (ENE) 12:27:33 145.935-145.965
DUCHIFAT 1 29 Jun 12:27:44 12:31:57 75° 75° (ENE) 12:36:12 145.980
ESTCUBE 1 29 Jun 12:32:27 12:36:47 47° 99° (E) 12:41:06 437.505/2401.250
NANOSAT C BR1 29 Jun 12:38:42 12:42:56 72° 258° (WSW) 12:47:12 145.865
Tancredo 1 29 Jun 12:43:06 12:45:28 20° 26° (NNE) 12:47:49 437.200
AIST 2D 29 Jun 12:51:13 12:53:31 16° 266° (W) 12:55:50 435.315
LO-87 29 Jun 12:58:40 13:02:03 36° 287° (WNW) 13:05:24 145.935 - 145.965
SO-50 29 Jun 13:02:10 13:05:40 22° 111° (ESE) 13:09:09 436.795
BUGSAT 1 29 Jun 13:20:07 13:24:16 86° 71° (ENE) 13:28:29 437.445
POLYITAN 1 29 Jun 13:21:50 13:25:06 21° 266° (W) 13:28:24 437.675
PCSat 29 Jun 13:29:37 13:33:25 19° 313° (NW) 13:37:15 145.827
QB50P2 29 Jun 13:34:00 13:36:22 15° 268° (W) 13:38:46 145.880/145.840
SPROUT 29 Jun 13:38:46 13:43:04 67° 101° (ESE) 13:47:19 437.525
50 SAT 29 Jun 13:42:16 13:45:08 25° 97° (E) 13:48:00 437.505
Gurwin Techsat 1B 29 Jun 13:43:46 13:48:34 36° 69° (ENE) 13:53:23 435.225
VELOX 1 29 Jun 13:51:06 13:55:34 81° 104° (ESE) 14:00:01 145.980
ISS 29 Jun 13:54:03 13:57:13 41° 33° (NNE) 14:00:21 437.550
Oscar 19 29 Jun 13:54:06 13:59:13 72° 74° (ENE) 14:04:22 437.125/150
DX 1 29 Jun 13:56:47 14:00:34 28° 97° (E) 14:04:19 434.975-435.025
JUGNU 29 Jun 14:02:16 14:04:01 11° 182° (S) 14:05:45 437.505
UKube-1 29 Jun 14:05:01 14:08:27 23° 95° (E) 14:11:52 .
ESTCUBE 1 29 Jun 14:10:30 14:13:11 16° 295° (WNW) 14:15:51 437.505/2401.250
Tancredo 1 29 Jun 14:18:15 14:21:10 46° 223° (SW) 14:24:05 437.200
SO-50 29 Jun 14:41:37 14:45:53 38° 308° (NW) 14:50:08 436.795
ITAMSAT 1 29 Jun 14:43:25 14:46:42 17° 62° (ENE) 14:49:58 435.822/435.867
AO-7 29 Jun 15:04:49 15:12:31 44° 63° (ENE) 15:20:17 .
50 SAT 29 Jun 15:15:33 15:17:42 16° 292° (WNW) 15:19:52 437.505
SPROUT 29 Jun 15:17:13 15:18:22 11° 297° (WNW) 15:19:31 437.525
Gurwin Techsat 1B 29 Jun 15:24:06 15:28:32 27° 265° (W) 15:33:01 435.225
ITUPSAT 1 29 Jun 15:30:42 15:34:01 19° 93° (E) 15:37:19 437.325
ISS 29 Jun 15:31:02 15:33:29 20° 229° (SW) 15:35:57 437.550
DX 1 29 Jun 15:33:03 15:36:37 24° 292° (WNW) 15:40:09 434.975-435.025
Oscar 19 29 Jun 15:37:02 15:39:01 12° 270° (W) 15:41:02 437.125/150
BEESAT 29 Jun 15:37:18 15:41:01 22° 95° (E) 15:44:42 436.000
UKube-1 29 Jun 15:40:42 15:44:26 29° 291° (WNW) 15:48:10 .
SRMSAT 29 Jun 15:55:47 15:57:30 11° 177° (S) 15:59:12 437.500
MOZHAYETS 4 29 Jun 16:05:23 16:09:22 28° 96° (E) 16:13:17
ITAMSAT 1 29 Jun 16:20:30 16:25:38 60° 259° (W) 16:30:49 435.822/435.867
AO-7 29 Jun 16:57:33 17:05:15 41° 260° (W) 17:13:02 .
CUBESAT XI-V 29 Jun 16:58:53 17:02:13 20° 93° (E) 17:05:33 437.345
KKS-1 29 Jun 17:07:15 17:09:46 15° 92° (E) 17:12:17 437.445
ITUPSAT 1 29 Jun 17:07:30 17:12:01 43° 289° (WNW) 17:16:30 437.325
BEESAT 29 Jun 17:14:30 17:18:51 36° 290° (WNW) 17:23:10 436.000
DOVE 4 29 Jun 17:25:59 17:29:24 25° 68° (ENE) 17:32:56 437.250
MOZHAYETS 4 29 Jun 17:42:38 17:46:23 26° 292° (WNW) 17:50:08
SRMSAT 29 Jun 17:45:33 17:45:43 10° 187° (S) 17:45:53 437.500
NUDT-PHONESAT 29 Jun 17:54:30 17:56:43 15° 67° (ENE) 17:58:55 437.300
CUTE-I 29 Jun 17:57:28 18:01:54 28° 66° (ENE) 18:06:22 437.470
HO-68 29 Jun 18:08:34 18:12:48 17° 55° (NE) 18:17:00 435.675
XW-2F 29 Jun 18:23:03 18:26:41 43° 74° (ENE) 18:30:19 145.980 - 146.000
XW-2D 29 Jun 18:30:13 18:33:59 59° 75° (ENE) 18:37:46 145.860 - 145.880
CUBESAT XI-V 29 Jun 18:35:27 18:39:40 37° 289° (WNW) 18:43:55 437.345
XW-2B 29 Jun 18:39:18 18:43:08 75° 76° (ENE) 18:46:57 145.730 - 145.750
KKS-1 29 Jun 18:42:15 18:46:34 48° 288° (WNW) 18:50:52 437.445
LilacSat-2 29 Jun 18:44:10 18:48:02 87° 255° (WSW) 18:51:54 437.200
XW-2C 29 Jun 18:55:04 18:58:53 66° 260° (W) 19:02:42 145.795 - 145.815
KAITUO 1B 29 Jun 18:57:33 19:01:19 82° 260° (W) 19:05:05 145.475/437.950
STARS 29 Jun 18:58:42 19:03:09 77° 285° (WNW) 19:07:34 437.465
CUBEBUG 2 29 Jun 19:02:16 19:04:08 12° 62° (ENE) 19:06:01 437.445
DOVE 4 29 Jun 19:03:33 19:07:01 25° 265° (W) 19:10:36 437.250
XW-2A 29 Jun 19:05:38 19:07:08 12° 67° (ENE) 19:08:37 145.665 - 145.685
SEEDS 29 Jun 19:11:17 19:13:53 16° 67° (ENE) 19:16:30 437.485
UWE-3 29 Jun 19:25:49 19:27:56 13° 63° (ENE) 19:30:02 435.000/436.395/437.385
STRAND 1 29 Jun 19:26:13 19:27:32 11° 89° (E) 19:28:52 437.568
NUDT-PHONESAT 29 Jun 19:26:53 19:30:18 33° 262° (W) 19:33:45 437.300
CUTE 1.7 + AOD 2 29 Jun 19:36:04 19:40:10 49° 74° (ENE) 19:44:16 437.475
NO-84 29 Jun 19:36:15 19:37:58 13° 120° (ESE) 19:39:43 435.350 FM
CUTE-I 29 Jun 19:36:54 19:41:45 36° 262° (W) 19:46:40 437.470
AAUSAT CUBESAT 2 29 Jun 19:47:46 19:50:39 19° 68° (ENE) 19:53:33 437.432
RS-15 29 Jun 19:51:27 20:02:09 39° 106° (ESE) 20:13:05 29.354- 29.394
HO-68 29 Jun 19:52:17 19:59:30 87° 71° (ENE) 20:06:44 435.675
XW-2F 29 Jun 19:59:39 20:01:00 12° 268° (W) 20:02:23 145.980 - 146.000
AO-73 29 Jun 20:07:13 20:10:15 18° 66° (ENE) 20:13:18 145.935
BEESAT 2 29 Jun 20:15:45 20:18:32 19° 111° (ESE) 20:21:21 435.950
AO-85 29 Jun 20:16:24 20:20:29 81° 300° (WNW) 20:24:27 145.980
Oscar 11 29 Jun 20:28:22 20:31:40 22° 68° (ENE) 20:34:59 .
PCSat 29 Jun 20:33:18 20:38:28 42° 56° (NE) 20:43:34 145.827
CUBEBUG 2 29 Jun 20:35:28 20:40:04 71° 259° (WSW) 20:44:49 437.445
XW-2A 29 Jun 20:36:23 20:39:32 34° 262° (W) 20:42:42 145.665 - 145.685
BEESAT 3 29 Jun 20:42:02 20:45:58 70° 301° (WNW) 20:50:00 437.485
ZACube-1 29 Jun 20:43:33 20:47:55 47° 73° (ENE) 20:52:20 437.345
SEEDS 29 Jun 20:45:19 20:49:14 39° 262° (W) 20:53:11 437.485
UWE-3 29 Jun 20:59:11 21:03:46 65° 259° (W) 21:08:26 435.000/436.395/437.385
YUBILEINY 29 Jun 21:01:41 21:08:28 26° 82° (E) 21:15:16 435.215
STRAND 1 29 Jun 21:02:06 21:07:16 79° 286° (WNW) 21:12:24 437.568
O/OREOS (USA 219) 29 Jun 21:05:11 21:09:35 52° 107° (ESE) 21:14:00 437.305
NO-84 29 Jun 21:11:12 21:14:56 66° 318° (NW) 21:19:00 435.350 FM
CUTE 1.7 + AOD 2 29 Jun 21:14:22 21:16:15 13° 269° (W) 21:18:08 437.475
AAUSAT CUBESAT 2 29 Jun 21:22:11 21:25:52 32° 263° (W) 21:29:35 437.432
SO-50 29 Jun 21:34:10 21:37:11 17° 44° (NE) 21:40:11 436.795
AO-73 29 Jun 21:41:46 21:46:07 44° 262° (W) 21:50:30 145.935
HO-68 29 Jun 21:44:04 21:48:00 15° 270° (W) 21:51:58 435.675
BEESAT 2 29 Jun 21:52:20 21:56:00 35° 307° (NW) 21:59:46 435.950
EO-88 29 Jun 21:53:18 21:56:29 28° 72° (ENE) 21:59:41 145.990 - 145.960
RS-15 29 Jun 22:01:59 22:14:02 64° 307° (NW) 22:26:21 29.354- 29.394
Oscar 11 29 Jun 22:03:44 22:07:36 31° 263° (W) 22:11:29 .
DELFI C3 29 Jun 22:04:48 22:08:40 66° 76° (ENE) 22:12:34 145.870
FO-29 29 Jun 22:06:16 22:12:58 30° 93° (E) 22:19:25 435.910
UNISAT 6 29 Jun 22:07:25 22:09:06 12° 90° (E) 22:10:46 437.425
M-CUBED/EXP-1 PRIME 29 Jun 22:12:35 22:14:50 15° 99° (E) 22:17:09 437.505
PCSat 29 Jun 22:17:12 22:21:36 26° 253° (WSW) 22:25:59 145.827
ZACube-1 29 Jun 22:21:39 22:24:25 16° 268° (W) 22:27:11 437.345
O/OREOS (USA 219) 29 Jun 22:46:34 22:49:18 16° 304° (NW) 22:52:03 437.305
NO-84 29 Jun 22:50:47 22:53:14 15° 338° (NNW) 22:55:47 435.350 FM
YUBILEINY 29 Jun 22:55:46 23:04:28 65° 280° (W) 23:13:17 435.215
TIGRISAT 29 Jun 22:58:11 23:02:32 40° 98° (E) 23:06:46 435.000
PRISM 29 Jun 22:58:44 23:02:39 41° 99° (E) 23:06:33 437.425
SO-50 29 Jun 23:13:32 23:18:01 61° 242° (WSW) 23:22:30 436.795
EO-88 29 Jun 23:27:50 23:30:11 16° 266° (W) 23:32:32 145.990 - 145.960
ESTCUBE 1 29 Jun 23:30:38 23:34:46 37° 71° (ENE) 23:38:54 437.505/2401.250
LO-87 29 Jun 23:32:52 23:36:24 66° 77° (ENE) 23:39:58 145.935 - 145.965
UNISAT 6 29 Jun 23:41:39 23:46:13 61° 286° (WNW) 23:50:40 437.425
M-CUBED/EXP-1 PRIME 29 Jun 23:45:39 23:49:20 42° 292° (WNW) 23:53:17 437.505
FO-29 29 Jun 23:50:33 23:58:13 57° 290° (WNW) 00:05:37 435.910
EO-79 30 Jun 00:06:35 00:08:36 13° 92° (E) 00:10:37 145.935-145.965
DUCHIFAT 1 30 Jun 00:14:40 00:16:35 13° 91° (E) 00:18:30 145.980
AIST 2D 30 Jun 00:16:06 00:19:21 36° 98° (E) 00:22:34 435.315
RS-15 30 Jun 00:20:13 00:29:44 25° 336° (NNW) 00:39:17 29.354- 29.394
NANOSAT C BR1 30 Jun 00:24:56 00:28:02 19° 94° (E) 00:31:06 145.865
SPROUT 30 Jun 00:30:38 00:34:39 41° 72° (ENE) 00:38:42 437.525
PRISM 30 Jun 00:35:07 00:37:34 16° 294° (WNW) 00:40:01 437.425
TIGRISAT 30 Jun 00:35:39 00:38:53 19° 294° (WNW) 00:42:04 435.000
VELOX 1 30 Jun 00:46:50 00:51:07 59° 74° (ENE) 00:55:27 145.980
DX 1 30 Jun 00:51:28 00:54:45 21° 67° (ENE) 00:58:03 434.975-435.025
UKube-1 30 Jun 00:58:51 01:01:41 17° 66° (ENE) 01:04:32 .
YUBILEINY 30 Jun 01:00:32 01:03:14 11° 302° (WNW) 01:05:57 435.215
BUGSAT 1 30 Jun 01:04:35 01:06:46 14° 92° (E) 01:08:55 437.445
POLYITAN 1 30 Jun 01:06:31 01:10:47 67° 101° (E) 01:15:00 437.675
ESTCUBE 1 30 Jun 01:08:31 01:11:40 19° 266° (W) 01:14:51 437.505/2401.250
QB50P2 30 Jun 01:17:40 01:21:58 82° 282° (WNW) 01:26:12 145.880/145.840
FO-29 30 Jun 01:39:14 01:41:33 12° 308° (NW) 01:43:54 435.910
EO-79 30 Jun 01:40:29 01:44:37 48° 286° (WNW) 01:48:42 145.935-145.965
50 SAT 30 Jun 01:44:45 01:48:02 53° 259° (W) 01:51:21 437.505
DUCHIFAT 1 30 Jun 01:48:24 01:52:31 49° 287° (WNW) 01:56:34 145.980
AIST 2D 30 Jun 01:50:50 01:52:12 12° 293° (WNW) 01:53:33 435.315
NANOSAT C BR1 30 Jun 01:59:59 02:03:47 32° 289° (WNW) 02:07:33 145.865
Gurwin Techsat 1B 30 Jun 02:02:20 02:05:21 15° 91° (E) 02:08:21 435.225
Oscar 19 30 Jun 02:07:20 02:11:41 27° 96° (E) 02:15:59 437.125/150
SPROUT 30 Jun 02:08:10 02:10:44 15° 268° (W) 02:13:18 437.525
NO-84 30 Jun 02:09:13 02:11:39 15° 21° (NNE) 02:14:07 435.350 FM
VELOX 1 30 Jun 02:26:36 02:27:56 11° 269° (W) 02:29:15 145.980
DX 1 30 Jun 02:26:53 02:30:44 31° 263° (W) 02:34:37 434.975-435.025
UKube-1 30 Jun 02:33:22 02:37:23 39° 261° (W) 02:41:26 .
ITUPSAT 1 30 Jun 02:36:21 02:39:50 20° 65° (ENE) 02:43:19 437.325
BUGSAT 1 30 Jun 02:38:16 02:42:20 46° 287° (WNW) 02:46:21 437.445
RS-15 30 Jun 02:39:57 02:48:33 21° 13° (NNE) 02:56:57 29.354- 29.394
BEESAT 30 Jun 02:42:34 02:46:20 24° 67° (ENE) 02:50:07 436.000
POLYITAN 1 30 Jun 02:44:57 02:45:58 11° 297° (WNW) 02:46:58 437.675
MOZHAYETS 4 30 Jun 03:06:08 03:09:54 25° 68° (ENE) 03:13:40
AO-7 30 Jun 03:10:51 03:13:57 12° 88° (E) 03:17:03 .
Gurwin Techsat 1B 30 Jun 03:40:25 03:45:41 63° 287° (WNW) 03:50:56 435.225
NO-84 30 Jun 03:45:49 03:50:06 51° 40° (NE) 03:54:19 435.350 FM
Oscar 19 30 Jun 03:46:25 03:50:58 33° 291° (WNW) 03:55:31 437.125/150
CUBESAT XI-V 30 Jun 04:01:25 04:04:29 18° 66° (ENE) 04:07:33 437.345
KKS-1 30 Jun 04:05:04 04:06:58 13° 63° (ENE) 04:08:53 437.445
ITUPSAT 1 30 Jun 04:12:47 04:17:20 42° 261° (W) 04:21:54 437.325
BEESAT 30 Jun 04:19:32 04:23:53 35° 262° (W) 04:28:17 436.000
ITAMSAT 1 30 Jun 04:34:29 04:39:37 53° 101° (E) 04:44:42 435.822/435.867
BEESAT 2 30 Jun 04:35:20 04:36:17 11° 41° (NE) 04:37:13 435.950
MOZHAYETS 4 30 Jun 04:42:48 04:46:53 31° 264° (W) 04:51:00
AO-85 30 Jun 04:48:01 04:52:06 56° 57° (ENE) 04:56:26 145.980
RS-15 30 Jun 04:53:47 05:05:25 46° 45° (NE) 05:16:26 29.354- 29.394
AO-7 30 Jun 04:59:33 05:07:58 74° 106° (ESE) 05:16:18 .
BEESAT 3 30 Jun 04:59:54 05:03:45 43° 55° (NE) 05:07:31 437.485
NO-84 30 Jun 05:24:03 05:27:25 22° 236° (SW) 05:30:42 435.350 FM
CUBESAT XI-V 30 Jun 05:37:05 05:41:30 44° 261° (W) 05:45:55 437.345
KKS-1 30 Jun 05:38:36 05:42:58 61° 259° (WSW) 05:47:24 437.445
STARS 30 Jun 05:53:37 05:57:59 80° 77° (ENE) 06:02:25 437.465
BEESAT 2 30 Jun 06:10:34 06:14:39 89° 51° (NE) 06:18:40 435.950
ITAMSAT 1 30 Jun 06:15:03 06:18:38 19° 297° (WNW) 06:22:12 435.822/435.867
CUTE-I 30 Jun 06:17:44 06:19:14 11° 89° (E) 06:20:45 437.470
LilacSat-2 30 Jun 06:21:12 06:21:53 10° 91° (E) 06:22:33 437.200
AO-85 30 Jun 06:30:04 06:32:06 13° 250° (WSW) 06:34:12 145.980
XW-2C 30 Jun 06:30:18 06:32:09 13° 92° (E) 06:34:00 145.795 - 145.815
ISS 30 Jun 06:33:36 06:36:12 22° 132° (SE) 06:38:50 437.550
BEESAT 3 30 Jun 06:38:39 06:40:56 15° 251° (WSW) 06:43:11 437.485
STRAND 1 30 Jun 06:40:08 06:43:09 16° 62° (ENE) 06:46:10 437.568
Tancredo 1 30 Jun 06:47:20 06:50:20 77° 139° (SE) 06:53:21 437.200
AO-7 30 Jun 06:53:28 06:59:55 26° 305° (NW) 07:06:21 .
NUDT-PHONESAT 30 Jun 06:58:34 07:01:29 22° 95° (E) 07:04:22 437.300
DOVE 4 30 Jun 07:01:27 07:06:32 86° 103° (ESE) 07:11:48 437.250
RS-15 30 Jun 07:06:36 07:18:12 57° 249° (WSW) 07:29:13 29.354- 29.394
YUBILEINY 30 Jun 07:15:33 07:17:19 11° 57° (ENE) 07:19:04 435.215
O/OREOS (USA 219) 30 Jun 07:16:15 07:20:44 82° 69° (ENE) 07:25:12 437.305
HO-68 30 Jun 07:23:15 07:27:40 17° 91° (E) 07:32:03 435.675
XW-2F 30 Jun 07:30:03 07:33:48 77° 101° (ESE) 07:37:31 145.980 - 146.000
XW-2D 30 Jun 07:37:51 07:41:36 76° 283° (WNW) 07:45:19 145.860 - 145.880
XW-2B 30 Jun 07:47:03 07:50:46 59° 284° (WNW) 07:54:26 145.730 - 145.750
LilacSat-2 30 Jun 07:52:46 07:56:24 46° 286° (WNW) 08:00:00 437.200
CUTE-I 30 Jun 07:54:28 07:59:52 83° 286° (WNW) 08:05:14 437.470
XW-2A 30 Jun 08:00:15 08:02:05 14° 93° (E) 08:03:54 145.665 - 145.685
XW-2C 30 Jun 08:03:01 08:06:29 36° 287° (WNW) 08:09:55 145.795 - 145.815
KAITUO 1B 30 Jun 08:03:48 08:07:21 46° 286° (WNW) 08:10:53 145.475/437.950
ISS 30 Jun 08:09:29 08:12:33 36° 328° (NNW) 08:15:37 437.550
STRAND 1 30 Jun 08:16:41 08:21:46 63° 259° (WSW) 08:26:54 437.568
FO-29 30 Jun 08:21:55 08:23:17 11° 51° (NE) 08:24:40 435.910
Tancredo 1 30 Jun 08:24:15 08:26:13 16° 337° (NNW) 08:28:11 437.200
CUBEBUG 2 30 Jun 08:28:04 08:32:02 27° 95° (E) 08:35:53 437.445
SEEDS 30 Jun 08:30:01 08:33:50 34° 97° (E) 08:37:36 437.485
NUDT-PHONESAT 30 Jun 08:32:27 08:35:16 21° 290° (WNW) 08:38:03 437.300
DOVE 4 30 Jun 08:41:48 08:43:32 12° 298° (WNW) 08:45:17 437.250
UWE-3 30 Jun 08:50:34 08:54:27 28° 95° (E) 08:58:13 435.000/436.395/437.385
CUTE 1.7 + AOD 2 30 Jun 08:57:31 09:01:42 68° 284° (WNW) 09:05:51 437.475
M-CUBED/EXP-1 PRIME 30 Jun 08:59:00 09:00:07 11° 61° (ENE) 09:01:14 437.505
AAUSAT CUBESAT 2 30 Jun 09:04:53 09:08:44 38° 98° (E) 09:12:36 437.432
UNISAT 6 30 Jun 09:06:23 09:07:05 10° 61° (ENE) 09:07:48 437.425
YUBILEINY 30 Jun 09:07:26 09:16:11 62° 79° (E) 09:24:49 435.215
HO-68 30 Jun 09:08:53 09:16:05 80° 288° (WNW) 09:23:14 435.675
AO-73 30 Jun 09:31:00 09:35:05 37° 97° (E) 09:39:03 145.935
XW-2A 30 Jun 09:31:57 09:34:51 27° 288° (WNW) 09:37:44 145.665 - 145.685
CUTE-I 30 Jun 09:37:49 09:39:02 11° 302° (WNW) 09:40:14 437.470
PRISM 30 Jun 09:47:05 09:50:23 25° 69° (ENE) 09:53:42 437.425
ISS 30 Jun 09:48:37 09:49:47 11° 347° (NNW) 09:50:57 437.550
Oscar 11 30 Jun 09:51:30 09:55:41 49° 99° (E) 09:59:50 .
TIGRISAT 30 Jun 09:55:20 09:59:25 31° 70° (ENE) 10:03:33 435.000
FO-29 30 Jun 10:00:30 10:06:39 62° 71° (ENE) 10:13:39 435.910
CUBEBUG 2 30 Jun 10:04:38 10:08:32 27° 291° (WNW) 10:12:21 437.445
SEEDS 30 Jun 10:06:22 10:09:15 18° 292° (WNW) 10:12:07 437.485
ZACube-1 30 Jun 10:09:08 10:13:32 69° 285° (WNW) 10:17:47 437.345
UWE-3 30 Jun 10:27:04 10:30:46 25° 292° (WNW) 10:34:24 435.000/436.395/437.385
